IRIDIUM 100

Last updated on Fri Sep 11 2026 00:03:06 GMT+0000 (Coordinated Universal Time)

1 42956U 17061B 26253.35211252 .00000100 00000+0 28490-4 0 9997 2 42956 86.4026 349.5962 0002186 95.0681 265.0765 14.34217632466985
UTC large
Height (km)
Speed (km/s)
/
Latitude / Longitude
Inclination (degrees)
Orbital Period (minutes)
Azimuth
Elevation
Range (km)
Doppler Factor

Next 0 passes for location: London (51.5072 / 0.1276)

No passes found over London.
IRIDIUM 100